Home   Weather   Königs Wusterhausen   Past weeks

Flag for Germany Past Weather in Königs Wusterhausen, Brandenburg, Germany — Yesterday and Last 2 Weeks

Now
50 °F

Passing clouds.


Feels Like: 45 °F
Forecast: 35 / 56 °F
Wind: 14 mph from Northwest

Location: Berlin-Schoenefeld

Current Time: Apr 29, 2017 at 4:05:03 pm

Latest Report: Apr 29, 2017 at 3:20 pm


Visibility: N/A

Pressure: 30.04 "Hg

Humidity: 47%

Dew Point: 30 °F

Location of Königs WusterhausenLocation

Past Weather in Königs Wusterhausen — Graph

°F

Königs Wusterhausen Temperature Yesterday

Maximum temperature yesterday: 54 °F (at 1:20 pm)
Minimum temperature yesterday: 34 °F (at 5:50 am)
Average temperature yesterday: 46 °F

High & Low Weather Summary for the Past Weeks

 TemperatureHumidityPressure
High59 °F (Apr 21, 2:50 pm)100% (Apr 17, 12:20 am)30.57 "Hg (Apr 17, 12:20 am)
Low28 °F (Apr 20, 4:20 am)34% (Apr 20, 2:20 pm)29.56 "Hg (Apr 25, 5:50 am)
Average44 °F69%30.03 "Hg
* Reported Apr 14 2:20 pm — Apr 29 2:50 pm, Königs Wusterhausen, Weather by CustomWeather, © 2017

Note: Actual official high and low records may vary slightly from our data, if they occured in-between our weather recording intervals... More about our weather records

Advertising

Königs Wusterhausen Weather History for the Previous 24 Hours

Scroll right to see more
 ConditionsComfort  
Time TempWeatherWind HumidityBarometerVisibility
2:50 pm
Sat, Apr 29
50 °FBroken clouds.14 mph47%30.04 "HgN/A
2:20 pm50 °FBroken clouds.14 mph43%30.01 "HgN/A
1:50 pm50 °FScattered clouds.14 mph47%30.01 "HgN/A
12:50 pm50 °FScattered clouds.18 mph43%30.01 "HgN/A
12:20 pm50 °FBroken clouds.12 mph54%30.01 "HgN/A
11:50 am46 °FPartly sunny.13 mph53%30.01 "HgN/A
11:20 am48 °FBroken clouds.15 mph50%30.01 "HgN/A
10:50 am46 °FBroken clouds.12 mph62%30.01 "HgN/A
9:50 am48 °FScattered clouds.13 mph66%30.01 "HgN/A
9:20 am46 °FScattered clouds.13 mph76%29.98 "HgN/A
8:50 am45 °FBroken clouds.15 mph81%29.98 "HgN/A
8:20 am45 °FPartly sunny.12 mph87%29.98 "HgN/A
7:50 am45 °FBroken clouds.8 mph93%29.98 "Hg5 mi
7:20 am43 °FSunny.6 mph93%29.98 "Hg10 mi
6:50 am43 °FPartly sunny.7 mph93%29.95 "Hg4 mi
6:20 am41 °FLight rain. Partly sunny.7 mph100%29.95 "Hg4 mi
5:50 am39 °FSunny.7 mph100%29.95 "Hg10 mi
5:20 am39 °FClear.5 mph93%29.95 "Hg10 mi
4:50 am43 °FPartly cloudy.7 mph87%29.95 "HgN/A
4:20 am45 °FLight rain. Clear.9 mph81%29.95 "HgN/A
3:50 am45 °FClear.14 mph81%29.95 "Hg10 mi
3:20 am45 °FClear.9 mph76%29.92 "Hg10 mi
2:50 am41 °FClear.5 mph81%29.92 "Hg10 mi
2:20 am41 °FPassing clouds.3 mph81%29.92 "HgN/A
1:50 am41 °FPassing clouds.3 mph76%29.92 "HgN/A
1:20 am43 °FClear.5 mph76%29.92 "Hg10 mi
12:50 am45 °FClear.2 mph71%29.92 "Hg10 mi
12:20 am45 °FClear.3 mph71%29.92 "Hg10 mi
11:50 pm
Fri, Apr 28
46 °FClear.3 mph66%29.92 "Hg10 mi
10:50 pm46 °FClear.2 mph66%29.92 "Hg10 mi
10:20 pm45 °FClear.2 mph71%29.92 "Hg10 mi
9:50 pm46 °FClear.3 mph66%29.92 "Hg10 mi
9:20 pm48 °FClear.2 mph62%29.92 "Hg10 mi
8:50 pm48 °FClear.1 mph62%29.92 "Hg10 mi
8:20 pm48 °FScattered clouds.1 mph62%29.92 "HgN/A
7:50 pm48 °FScattered clouds.2 mph58%29.89 "HgN/A
7:20 pm48 °FSunny.3 mph62%29.89 "Hg10 mi
6:50 pm50 °FPassing clouds.7 mph58%29.89 "HgN/A
6:20 pm50 °FPassing clouds.8 mph58%29.89 "HgN/A
5:50 pm48 °FSunny.10 mph58%29.89 "Hg10 mi
5:20 pm50 °FSunny.10 mph58%29.89 "Hg10 mi
4:50 pm52 °FScattered showers. Partly sunny.8 mph50%29.89 "HgN/A
4:20 pm54 °FSunny.5 mph44%29.89 "Hg10 mi
Weather by CustomWeather, © 2017

See weather overviewHow to use our weather pages